Location: Boiro
(42.6475°N, 8.8834°W)
Time: 19:05:28
(UTC+01:00)

Transit 2A - Pass Details

Date: 09 December 2021
Orbit: 591 x 967 km, 66.7° (Epoch: 20 January)

Event Time Altitude Azimuth Distance (km) Brightness Sun altitude
Rises 10:38:24 0° 317° (NW) 3,658 8.9 13.7°
Reaches altitude 10° 10:41:35 10° 303° (WNW) 2,689 8.3 14.1°
Maximum altitude 10:46:10 22° 256° (WSW) 1,934 8.0 14.6°
Drops below altitude 10° 10:50:35 10° 208° (SSW) 2,559 9.1 15.1°
Sets 10:53:33 0° 193° (SSW) 3,435 10.0 15.5°
